Home > Weather > Welland > Past weeks

Flag for Canada Weather for the Past 2 Weeks in Welland, Ontario, Canada

Now
47 °F

Cool.


Feels Like: 45 °F
Forecast: 43 / 60 °F
Wind: 3 mph from Northeast

Location: Burlington Piers

Current Time: May 3, 2016 at 10:08:39 PM

Latest Report: May 3, 2016 at 9:00 PM


Visibility: N/A

Pressure: 29.80 "Hg

Humidity: 84%

Dew Point: 42 °F

Location of WellandLocation

Historic Weather in Welland — Graph

°F

Welland Temperature Yesterday

Maximum temperature yesterday: 48 °F (at 11:00 PM)
Minimum temperature yesterday: 42 °F (at 6:00 AM)
Average temperature yesterday: 45 °F

High & Low Weather Summary for the Past Weeks

 TemperatureHumidityPressure
High69 °F (Apr 18, 9:00 PM)100% (May 1, 12:00 PM)30.36 "Hg (May 1, 12:00 PM)
Low36 °F (Apr 25, 4:00 PM)29% (Apr 19, 8:00 PM)29.79 "Hg (Apr 22, 4:00 AM)
Average44 °F69%30.06 "Hg
* Reported Apr 18 9:00 PM — May 3 9:00 PM, Welland, Weather by CustomWeather, © 2016

Note: Actual official high and low records may vary slightly from our data, if they occured in-between our weather recording intervals... More about our weather records

Advertising

Welland Weather History for the Previous 24 Hours

Scroll right to see more
 ConditionsComfort  
Time TempWeatherWind HumidityBarometerVisibility
9:00 PM
Tue, May 3
47 °FCool.3 mph84%29.80 "HgN/A
8:00 PM46 °FCool.2 mph85%29.81 "HgN/A
7:00 PM46 °FCool.7 mph84%29.81 "HgN/A
6:00 PM46 °FCool.7 mph86%29.81 "HgN/A
5:00 PM47 °FCool.7 mph85%29.82 "HgN/A
4:00 PM46 °FCool.3 mph86%29.83 "HgN/A
3:00 PM47 °FCool.7 mph84%29.84 "HgN/A
2:00 PM46 °FCool.5 mph84%29.86 "HgN/A
1:00 PM46 °FCool.6 mph87%29.88 "HgN/A
12:00 PM45 °FQuite cool.3 mph89%29.89 "HgN/A
11:00 AM42 °FQuite cool.5 mph96%29.90 "HgN/A
10:00 AM43 °FQuite cool.6 mph83%29.91 "HgN/A
9:00 AM44 °FQuite cool.6 mph85%29.92 "HgN/A
8:00 AM45 °FCool.2 mph81%29.94 "HgN/A
7:00 AM45 °FCool.1 mph84%29.94 "HgN/A
6:00 AM43 °FQuite cool.1 mph90%29.94 "HgN/A
5:00 AM44 °FQuite cool.2 mph90%29.94 "HgN/A
4:00 AM44 °FQuite cool.2 mph87%29.96 "HgN/A
3:00 AM45 °FQuite cool.No wind84%29.96 "HgN/A
2:00 AM45 °FCool.1 mph78%29.97 "HgN/A
1:00 AM45 °FCool.1 mph81%29.97 "HgN/A
12:00 AM47 °FCool.3 mph74%29.97 "HgN/A
11:00 PM
Mon, May 2
48 °FCool.5 mph68%29.98 "HgN/A
10:00 PM47 °FCool.1 mph74%29.98 "HgN/A
Weather by CustomWeather, © 2016

See weather overviewHow to use our weather pages